TIME,DELAY(SENSOR),PRES,OXYGEN,RAWTEMP,T(OPTODE),TCPHASE,FLUOR,BETA(BETA700),BETA(BETA412),BETA(BETA440),CDOM,C(CSC),ED(ED411.90),ED(ED443.80),ED(ED489.40),ED(ED554.70),LU(LU412.20),LU(LU443.80),LU(LU489.40),LU(LU555.00),COMP,TILTX,TILTY,CHECK
1344895409,5802,868.6500244140625000,163.7597961425781200,431.0642089843750000,10.0234498977661130,39.7567710876464840,51,104,101,82,74,15592,2147453339,2147790902,2147578980,2147821677,2147307227,2147455296,2147747373,2148267392,1082,6,13,52802
1344899006,5802,7.9000000953674320,193.6172027587890600,500.2218933105469000,7.8731861114501950,38.8686790466308600,51,106,102,82,75,15591,2147437366,2147800137,2147578989,2147832530,2147306486,2147449280,2147756982,2148275766,2947,6,14,8646
1344902606,5803,9.6000003814697270,201.8562927246093800,511.9989929199219000,7.5040378570556640,38.5615806579589840,52,105,101,81,76,15589,2147435547,2147796946,2147586194,2147831908,2147303981,2147450203,2147759058,2148276086,3242,6,15,54987
1344906206,5801,10.8000001907348630,202.5101013183593800,512.1416015625000000,7.4995617866516110,38.5247497558593750,50,103,100,82,76,15587,2147438052,2147796224,2147585106,2147832832,2147307346,2147446418,2147765558,2148280137,3387,6,14,42663
1344909806,5804,1015.0000000000000000,203.3775024414062500,513.6099243164062000,7.4534687995910645,38.4980201721191400,51,104,102,82,76,15586,2147436708,2147800137,2147581458,2147834029,2147306176,2147448667,2147761106,2148276224,3466,6,14,36326
1344913406,5807,10.6999998092651370,203.7689056396484400,514.5092163085938000,7.4252347946166990,38.4902610778808600,51,103,102,82,76,15585,2147434029,2147801444,2147581056,2147832658,2147308726,2147450578,2147761490,2148276918,49,6,14,38540
1344917006,5802,10.6999998092651370,205.0892944335937500,514.8552246093750000,7.4143671989440920,38.4165191650390600,51,104,102,82,75,15585,2147435410,2147797138,2147583360,2147828525,2147308489,2147449984,2147762669,2148275218,3129,6,14,37213
1344920606,5805,1011.0000000000000000,205.1605072021484400,516.1688232421875000,7.3731079101562500,38.4351806640625000,51,103,101,82,76,15580,2147435410,2147797632,2147583058,2147834779,2147310253,2147451200,2147758235,2148275904,279,6,14,62879
1344924206,5804,11.5000000000000000,206.6748962402343800,517.0219116210938000,7.3463048934936520,38.3601799011230500,51,104,103,82,76,15582,2147430409,2147799561,2147583442,2147829376,2147308059,2147452443,2147757531,2148277686,3393,6,14,30211
1344927806,5802,1093.0000000000000000,206.3684997558593800,517.9315795898438000,7.3177170753479000,38.3940696716308600,51,103,101,81,75,15578,2147432283,2147798454,2147584100,2147830098,2147306971,2147447725,2147763520,2148275245,3459,6,14,29323
1344931406,5801,1092.0000000000000000,206.9239959716797000,518.0131225585938000,7.3151578903198240,38.3629417419433600,51,105,102,84,76,15572,2147434596,2147796955,2147583122,2147830610,2147308397,2147454070,2147757129,2148275830,3371,6,14,54031
1344935006,5802,10.5000000000000000,207.2236022949218800,518.3104858398438000,7.3058099746704100,38.3502998352050800,51,105,102,83,75,15577,2147432128,2147798016,2147584228,2147832164,2147308324,2147450852,2147759606,2148276361,3168,6,14,63439
1344938606,5806,1073.0000000000000000,206.9871978759765600,520.0053100585938000,7.2525320053100590,38.3946495056152340,51,104,103,82,75,15573,2147435401,2147797650,2147583396,2147829659,2147308269,2147450432,2147758006,2148276288,409,6,14,31519
1344942206,5804,1007.0000000000000000,207.5670013427734400,520.1257934570312000,7.2487430572509770,38.3621292114257800,50,105,102,82,75,15570,2147434925,2147796553,2147583122,2147831350,2147306660,2147451474,2147760192,2148277211,450,6,14,21538
1344945806,5803,1068.0000000000000000,206.8966979980468800,521.9202880859375000,7.1923079490661620,38.4331016540527340,51,110,102,83,76,15558,2147435739,2147797613,2147584694,2147833024,2147306624,2147449197,2147766729,2148279021,3418,6,14,54566
1344949406,5805,1021.0000000000000000,207.7220001220703000,520.9967041015625000,7.2213559150695800,38.3678703308105500,51,106,100,82,75,15554,2147436772,2147801152,2147583232,2147831826,2147308361,2147449819,2147765613,2148276571,711,6,14,59060
1344953006,5806,10.1000003814697270,207.1990051269531200,520.7026977539062000,7.2306032180786130,38.3943290710449200,51,105,102,82,76,15554,2147432914,2147799524,2147584219,2147831195,2147306194,2147453467,2147762386,2148276004,59,6,14,38934
1344956606,5808,11.5000000000000000,206.2776031494140600,521.1217041015625000,7.2174248695373535,38.4561386108398440,51,105,103,84,77,15552,2147435337,2147799122,2147582875,2147828946,2147306395,2147447652,2147759908,2148276800,27,6,14,44757
1344960206,5805,1155.0000000000000000,206.9989013671875000,519.8231201171875000,7.2582631111145020,38.3903388977050800,51,108,101,82,77,15547,2147437211,2147798372,2147583579,2147829650,2147305188,2147450002,2147762240,2148275410,104,6,14,38736
1344963806,5806,11.0000000000000000,207.2030029296875000,519.5864868164062000,7.2656979560852050,38.3735313415527340,51,103,102,82,75,15545,2147434907,2147802285,2147583332,2147830326,2147307830,2147450404,2147761078,2148278491,388,6,14,6095
1344967406,5804,11.0000000000000000,206.6640014648437500,519.3726806640625000,7.2724199295043945,38.4018898010253900,51,105,101,83,76,15552,2147432146,2147801417,2147583177,2147833974,2147308306,2147449097,2147758400,2148275858,3459,6,14,56479
1344971006,5805,11.3000001907348630,205.9618072509765600,519.0169067382812000,7.2836070060729980,38.4382095336914060,51,102,102,82,75,15550,2147434112,2147796608,2147586587,2147831716,2147303643,2147450258,2147761371,2148277129,349,6,15,58072
1344974606,5801,103.0000000000000000,205.8984069824218800,519.3187255859375000,7.2741179466247560,38.4472389221191400,51,104,102,81,74,15551,2147435638,2147800658,2147579748,2147835904,2147307346,2147447506,2147759222,2148277056,298,6,14,44107
1344978206,5806,10.8000001907348630,206.1786041259765600,519.7515258789062000,7.2605128288269040,38.4377708435058600,51,104,102,82,75,15546,2147437184,2147800813,2147583661,2147831085,2147308077,2147449499,2147759168,2148277202,3552,6,14,31270
1344981806,5805,1177.0000000000000000,207.1569976806640600,519.4639282226562000,7.2695550918579100,38.3745117187500000,51,103,101,81,76,15547,2147434221,2147798217,2147584438,2147834020,2147305334,2147455305,2147762249,2148276059,3272,6,14,30317
1344985406,5805,1049.0000000000000000,206.4598999023437500,520.6589965820312000,7.2319769859313965,38.4377403259277340,51,105,101,81,75,15546,2147437961,2147800356,2147577197,2147831881,2147305499,2147447424,2147757714,2148279862,3186,6,14,16803
1344989006,5805,1067.0000000000000000,206.7023925781250000,521.6505737304688000,7.2007918357849120,38.4405517578125000,50,121,101,82,75,15544,2147436507,2147796443,2147583012,2147832832,2147304301,2147451346,2147758070,2148277568,86,6,14,20548
1344992606,5802,11.6000003814697270,206.3217926025390600,522.9907836914062000,7.1586279869079590,38.4874496459960940,51,103,103,82,77,15545,2147439707,2147798025,2147584292,2147831296,2147309056,2147451565,2147760100,2148276507,3291,6,14,51943
1344996206,5805,85.0000000000000000,208.0574951171875000,522.9249267578125000,7.1607041358947750,38.3828697204589840,51,104,101,83,74,15544,2147433517,2147798262,2147581659,2147831954,2147305545,2147447826,2147756754,2148277650,3417,6,14,48775
1344999806,5806,11.8999996185302730,207.7799987792968800,522.6828002929688000,7.1683220863342285,38.3946495056152340,51,105,101,82,75,15545,2147436470,2147798445,2147583040,2147830656,2147309504,2147452123,2147761078,2148278253,169,6,14,57000
1345003406,5804,11.5000000000000000,208.2169036865234400,523.9265136718750000,7.1291871070861820,38.3913192749023440,50,105,101,81,77,15541,2147430902,2147798345,2147582016,2147829083,2147308086,2147450816,2147765485,2148279012,136,6,15,42991
1345007006,5806,1163.0000000000000000,208.8856048583984400,523.7028808593750000,7.1362252235412600,38.3478507995605500,52,103,101,81,76,15545,2147431332,2147796891,2147582409,2147833737,2147307382,2147451483,2147762358,2148280201,230,6,14,27652
1345010606,5805,12.3999996185302730,208.5494995117187500,522.8367919921875000,7.1634750366210940,38.3517494201660160,50,138,101,81,76,15540,2147435428,2147794651,2147583707,2147831222,2147308800,2147448932,2147761142,2148280502,570,6,14,19308
1345014206,5805,12.1000003814697270,208.5279998779297000,523.1978759765625000,7.1521148681640625,38.3592109680175800,51,106,101,83,75,15541,2147434148,2147796214,2147588041,2147834020,2147306221,2147446838,2147763254,2148276196,584,6,14,49548
1345017806,5805,1081.0000000000000000,207.5614929199218800,523.6635131835938000,7.1374630928039550,38.4252204895019500,52,103,102,83,76,15543,2147430747,2147797760,2147586349,2147832018,2147306742,2147448347,2147758939,2148274596,3052,6,14,62387
1345021406,5805,10.6999998092651370,207.1221923828125000,522.8541870117188000,7.1629281044006350,38.4365997314453100,51,107,101,83,76,15531,2147435510,2147796717,2147584320,2147832283,2147306788,2147451794,2147758509,2148275830,137,6,14,33875
1345025006,5806,1024.0000000000000000,206.6022949218750000,522.4992065429688000,7.1740970611572270,38.4615898132324200,51,111,101,82,76,15534,2147431113,2147801901,2147586093,2147830976,2147306505,2147456228,2147765257,2148277193,2699,6,14,29257
1345028606,5807,10.3000001907348630,208.0258026123047000,521.3720703125000000,7.2095508575439450,38.3571815490722660,52,103,102,82,76,15530,2147436681,2147797961,2147582774,2147831277,2147306340,2147451428,2147758710,2148276141,30,6,14,4314
1345032206,5807,12.8999996185302730,207.6177978515625000,521.2639160156250000,7.2129549980163570,38.3791694641113300,51,104,106,82,76,15532,2147434825,2147799890,2147587355,2147829403,2147306468,2147453732,2147759040,2148279908,394,6,14,15671
1345035806,5805,10.0000000000000000,206.7886962890625000,522.4754028320312000,7.1748452186584470,38.4502792358398440,51,106,101,82,76,15529,2147433691,2147797229,2147583945,2147831232,2147309019,2147450697,2147759497,2148276653,146,6,14,33243
1345037456,5805,1029.0000000000000000,206.9857025146484400,522.8739013671875000,7.1623082160949710,38.4448890686035160,51,104,102,82,76,15524,2147436772,2147799890,2147581805,2147830857,2147307437,2147451757,2147762157,2148278957,493,6,14,1389
